WA7SB-7 Weather Reports


Display with metric or nautical units.
time (UTC)temp
F
wind
direction
speed
MPH
gust
MPH
rain 1hr
in
rain 24hr
in
rain mn
in
humidity
%
barometer
mb
20260510134022 53 127 0.0 0.0 0.00 0.00 0.00 88 1019.5
20260510133924 53 243 0.0 0.0 0.00 0.00 0.00 88 1019.5
20260510133522 53 243 0.0 0.0 0.00 0.00 0.00 88 1019.4
20260510133424 53 242 0.0 0.0 0.00 0.00 0.00 88 1019.4
20260510133025 53 242 0.0 0.0 0.00 0.00 0.00 88 1019.1
20260510132927 53 242 0.0 0.0 0.00 0.00 0.00 88 1019.2
20260510132528 53 223 0.0 0.0 0.00 0.00 0.00 88 1019.3
20260510132428 53 223 0.0 0.0 0.00 0.00 0.00 88 1019.2
20260510132026 53 267 0.0 0.0 0.00 0.00 0.00 88 1019.2
20260510131932 53 267 0.0 0.0 0.00 0.00 0.00 88 1019.2
20260510131528 53 268 0.0 0.0 0.00 0.00 0.00 88 1019.4
20260510131435 53 267 0.0 0.0 0.00 0.00 0.00 88 1019.3
20260510131031 53 268 0.0 0.0 0.00 0.00 0.00 88 1019.0
20260510130934 53 268 0.0 0.0 0.00 0.00 0.00 87 1019.0
20260510130533 53 105 0.0 0.0 0.00 0.00 0.00 87 1018.8
20260510130412 53 105 0.0 0.0 0.00 0.00 0.00 87 1018.7
20260510130022 53 105 0.0 0.0 0.00 0.00 0.00 87 1018.8
20260510125922 53 105 0.0 0.0 0.00 0.00 0.00 87 1018.8
20260510125525 53 105 0.0 0.0 0.00 0.00 0.00 87 1018.7
20260510125426 53 105 0.0 0.0 0.00 0.00 0.00 87 1018.8
20260510125024 54 105 0.0 0.0 0.00 0.00 0.00 87 1019.0
20260510124924 54 105 0.0 0.0 0.00 0.00 0.00 87 1019.0
20260510124522 54 105 0.0 0.0 0.00 0.00 0.00 87 1018.7
20260510124425 54 105 0.0 0.0 0.00 0.00 0.00 87 1018.8
20260510124025 54 105 0.0 0.0 0.00 0.00 0.00 87 1018.8
20260510123927 54 105 0.0 0.0 0.00 0.00 0.00 87 1018.9
20260510123526 54 25 0.0 0.0 0.00 0.00 0.00 87 1019.0
20260510123428 54 25 0.0 0.0 0.00 0.00 0.00 87 1019.1
20260510123027 54 25 0.0 0.0 0.00 0.00 0.00 87 1019.3
20260510122927 54 25 0.0 0.0 0.00 0.00 0.00 87 1019.3
20260510122526 54 33 0.0 0.0 0.00 0.00 0.00 87 1019.1
20260510122429 54 33 0.0 0.0 0.00 0.00 0.00 86 1019.3
20260510122025 54 33 0.0 0.0 0.00 0.00 0.00 87 1018.9
20260510121932 54 33 0.0 0.0 0.00 0.00 0.00 87 1018.9
20260510121530 54 74 0.0 0.0 0.00 0.00 0.00 87 1019.0
20260510121436 54 74 0.0 0.0 0.00 0.00 0.00 87 1018.9
20260510121033 54 311 0.0 0.0 0.00 0.00 0.00 87 1018.9
20260510120918 54 275 0.0 0.0 0.00 0.00 0.00 87 1018.9
20260510120513 54 216 0.0 0.0 0.00 0.00 0.00 87 1018.8
20260510120436 54 216 0.0 0.0 0.00 0.00 0.00 87 1018.8
20260510120033 54 216 0.0 0.0 0.00 0.00 0.00 87 1018.8
20260510115933 54 269 0.0 0.0 0.00 0.00 0.00 87 1018.8
20260510115531 54 203 0.0 0.0 0.00 0.00 0.00 87 1018.8
20260510115433 54 203 0.0 0.0 0.00 0.00 0.00 87 1018.8
20260510115032 54 245 0.0 0.0 0.00 0.00 0.00 87 1019.2
20260510114934 54 245 0.0 0.0 0.00 0.00 0.00 87 1019.2
20260510114532 54 245 0.0 0.0 0.00 0.00 0.00 87 1018.9
20260510114433 54 245 0.0 0.0 0.00 0.00 0.00 87 1018.9
20260510114032 54 245 0.0 0.0 0.00 0.00 0.00 87 1019.1
20260510113913 54 245 0.0 0.0 0.00 0.00 0.00 87 1019.2
20260510113515 54 245 0.0 0.0 0.00 0.00 0.00 87 1019.3
20260510113416 54 245 0.0 0.0 0.00 0.00 0.00 87 1019.3
20260510113019 54 245 0.0 0.0 0.00 0.00 0.00 87 1019.2
20260510112919 54 245 0.0 0.0 0.00 0.00 0.00 87 1019.2
20260510112514 54 94 0.0 0.0 0.00 0.00 0.00 87 1019.2
20260510112421 54 94 0.0 0.0 0.00 0.00 0.00 87 1019.2
20260510112016 54 94 0.0 0.0 0.00 0.00 0.00 87 1019.1
20260510111923 54 94 0.0 0.0 0.00 0.00 0.00 87 1019.1
20260510111520 54 94 0.0 0.0 0.00 0.00 0.00 87 1019.1
20260510111024 54 311 0.0 0.0 0.00 0.00 0.00 87 1019.2
20260510110926 54 311 0.0 0.0 0.00 0.00 0.00 87 1019.2
20260510110527 54 311 0.0 0.0 0.00 0.00 0.00 87 1019.2
20260510110430 54 311 0.0 0.0 0.00 0.00 0.00 87 1019.3
20260510110023 54 311 0.0 0.0 0.00 0.00 0.00 87 1019.2
20260510105924 54 311 0.0 0.0 0.00 0.00 0.00 87 1019.2
20260510105526 54 311 0.0 0.0 0.00 0.00 0.00 87 1019.3
20260510105429 54 311 0.0 0.0 0.00 0.00 0.00 87 1019.3
20260510105031 54 311 0.0 0.0 0.00 0.00 0.00 87 1019.3
20260510104914 54 311 0.0 0.0 0.00 0.00 0.00 87 1019.3
20260510104517 54 301 0.0 0.0 0.00 0.00 0.00 87 1019.3
20260510104417 54 301 0.0 0.0 0.00 0.00 0.00 87 1019.2
20260510104017 54 301 0.0 0.0 0.00 0.00 0.00 87 1019.3
20260510103918 54 301 0.0 0.0 0.00 0.00 0.00 87 1019.3
20260510103519 54 306 0.0 0.0 0.00 0.00 0.00 87 1019.2
20260510103421 54 306 0.0 0.0 0.00 0.00 0.00 87 1019.1
20260510103024 54 252 0.0 0.0 0.00 0.00 0.00 87 1019.1
20260510102923 54 257 0.0 0.0 0.00 0.00 0.00 87 1019.2
20260510102522 54 76 0.0 0.0 0.00 0.00 0.00 87 1019.3
20260510102424 54 124 0.0 0.0 0.00 0.00 0.00 87 1019.3
20260510102026 54 124 0.0 0.0 0.00 0.00 0.00 87 1019.4
20260510101926 54 264 0.0 0.0 0.00 0.00 0.00 87 1019.5
20260510101521 54 91 0.0 0.0 0.00 0.00 0.00 87 1019.4
20260510101427 54 91 0.0 0.0 0.00 0.00 0.00 87 1019.4
20260510101023 54 245 0.0 0.0 0.00 0.00 0.00 87 1019.4
20260510100928 54 245 0.0 0.0 0.00 0.00 0.00 87 1019.4
20260510100522 54 271 0.0 0.0 0.00 0.00 0.00 87 1019.2
20260510100422 54 271 0.0 0.0 0.00 0.00 0.00 88 1019.1
20260510100016 54 272 0.0 0.0 0.00 0.00 0.00 88 1018.9
20260510095916 54 272 0.0 0.0 0.00 0.00 0.00 88 1018.9
20260510095518 54 316 0.0 0.0 0.00 0.00 0.00 88 1018.8
20260510095420 54 134 0.0 0.0 0.00 0.00 0.00 88 1018.8
20260510095016 54 252 0.0 0.0 0.00 0.00 0.00 88 1018.9
20260510094918 54 252 0.0 0.0 0.00 0.00 0.00 88 1018.9
20260510094516 54 127 0.0 0.0 0.00 0.00 0.00 88 1018.9
20260510094418 54 109 0.0 0.0 0.00 0.00 0.00 88 1018.9
20260510094018 54 105 0.0 0.0 0.00 0.00 0.00 88 1019.0
20260510093920 54 105 0.0 0.0 0.00 0.00 0.00 88 1019.0
20260510093523 54 288 0.0 0.0 0.00 0.00 0.00 88 1019.1
20260510093424 54 288 0.0 0.0 0.00 0.00 0.00 88 1019.0
20260510093027 54 244 0.0 0.0 0.00 0.00 0.00 88 1019.1
20260510092926 54 244 0.0 0.0 0.00 0.00 0.00 88 1019.2
20260510092523 54 105 0.0 0.0 0.00 0.00 0.00 88 1019.1
20260510092424 54 237 0.0 0.0 0.00 0.00 0.00 88 1019.2
20260510092022 54 80 0.0 0.0 0.00 0.00 0.00 88 1019.0
20260510091923 54 80 0.0 0.0 0.00 0.00 0.00 88 1019.0
20260510091516 54 80 0.0 0.0 0.00 0.00 0.00 88 1019.0
20260510091422 54 94 0.0 0.0 0.00 0.00 0.00 88 1019.0
20260510091020 54 86 0.0 0.0 0.00 0.00 0.00 88 1019.0
20260510090925 55 86 0.0 0.0 0.00 0.00 0.00 88 1019.0
20260510090522 55 83 0.0 0.0 0.00 0.00 0.00 88 1018.9
20260510090424 55 83 0.0 0.0 0.00 0.00 0.00 88 1018.8
20260510090034 55 146 0.0 0.0 0.00 0.00 0.00 88 1019.0
20260510085915 55 91 0.0 0.0 0.00 0.00 0.00 88 1018.9
20260510085517 54 91 0.0 0.0 0.00 0.00 0.00 88 1018.9
20260510085433 55 91 0.0 0.0 0.00 0.00 0.00 88 1018.9
20260510085031 54 261 0.0 0.0 0.00 0.00 0.00 88 1019.0
20260510084932 55 261 0.0 0.0 0.00 0.00 0.00 88 1019.0
20260510084531 54 115 0.0 0.0 0.00 0.00 0.00 88 1019.0
20260510084430 55 115 0.0 0.0 0.00 0.00 0.00 88 1019.0
20260510084029 54 134 0.0 0.0 0.00 0.00 0.00 88 1018.9
20260510083928 54 243 0.0 0.0 0.00 0.00 0.00 88 1018.8
20260510083527 55 190 0.0 0.0 0.00 0.00 0.00 88 1019.0
20260510083428 55 299 0.0 0.0 0.00 0.00 0.00 88 1018.9
20260510083029 54 301 0.0 0.0 0.00 0.00 0.00 88 1018.9
20260510082931 55 301 0.0 0.0 0.00 0.00 0.00 88 1018.9
20260510082532 55 131 0.0 0.0 0.00 0.00 0.00 88 1018.8
20260510082433 55 131 0.0 0.0 0.00 0.00 0.00 88 1018.8
20260510082030 55 182 0.0 0.0 0.00 0.00 0.00 88 1018.8
20260510081930 55 176 0.0 0.0 0.00 0.00 0.00 88 1018.9
20260510081525 55 67 0.0 0.0 0.00 0.00 0.00 88 1018.9
20260510081412 55 67 0.0 0.0 0.00 0.00 0.00 88 1018.9
20260510081033 55 67 0.0 0.0 0.00 0.00 0.00 88 1019.0
20260510080917 55 67 0.0 0.0 0.00 0.00 0.00 88 1019.0
20260510080514 55 41 0.0 0.0 0.00 0.00 0.00 88 1019.0
20260510080420 55 41 0.0 0.0 0.00 0.00 0.00 88 1019.0
20260510080029 55 244 0.0 0.0 0.00 0.00 0.00 88 1018.8
20260510075930 55 119 0.0 0.0 0.00 0.00 0.00 88 1018.9
20260510075530 55 120 0.0 0.0 0.00 0.00 0.00 88 1018.8
20260510075431 55 119 0.0 0.0 0.00 0.00 0.00 88 1018.9
20260510075029 55 119 0.0 0.0 0.00 0.00 0.00 88 1019.0
20260510074928 55 148 0.0 0.0 0.00 0.00 0.00 88 1019.0
20260510074526 55 155 0.0 0.0 0.00 0.00 0.00 88 1019.0
20260510074427 55 203 0.0 0.0 0.00 0.00 0.00 88 1019.1
20260510074025 55 261 0.0 0.0 0.00 0.00 0.00 88 1019.1
20260510073928 55 260 0.0 0.0 0.00 0.00 0.00 88 1019.0
20260510073528 55 260 0.0 0.0 0.00 0.00 0.00 88 1019.0
20260510073428 55 260 0.0 0.0 0.00 0.00 0.00 88 1018.9
20260510073027 55 275 0.0 0.0 0.00 0.00 0.00 88 1018.9
20260510072928 55 275 0.0 0.0 0.00 0.00 0.00 88 1018.8
20260510072529 55 275 0.0 0.0 0.00 0.00 0.00 88 1018.8
20260510072431 55 275 0.0 0.0 0.00 0.00 0.00 88 1018.7
20260510072029 55 294 0.0 0.0 0.00 0.00 0.00 88 1018.8
20260510071913 55 294 0.0 0.0 0.00 0.00 0.00 88 1018.8
20260510071513 55 278 0.0 0.0 0.00 0.00 0.00 88 1018.9
20260510071415 55 278 0.0 0.0 0.00 0.00 0.00 88 1018.9
20260510071029 55 240 0.0 0.0 0.00 0.00 0.00 88 1018.9
20260510070928 55 239 0.0 0.0 0.00 0.00 0.00 88 1018.9
20260510070523 55 271 0.0 0.0 0.00 0.00 0.00 88 1019.0
20260510070429 55 271 0.0 0.0 0.00 0.00 0.00 88 1018.9
20260510070035 55 271 0.0 0.0 0.00 0.00 0.00 88 1018.9
20260510065928 55 338 0.0 0.0 0.00 0.00 0.00 88 1018.9
20260510065559 55 322 0.0 0.0 0.00 0.00 0.00 88 1018.9
20260510065417 55 1 0.0 0.0 0.00 0.00 0.00 88 1018.9
20260510065018 55 24 0.0 0.0 0.00 0.00 0.00 88 1018.9
20260510064921 55 24 0.0 0.0 0.00 0.00 0.00 88 1018.9
20260510064521 55 266 0.0 0.0 0.00 0.00 0.00 88 1018.9
20260510064422 55 266 0.0 0.0 0.00 0.00 0.00 88 1018.8
20260510064023 55 266 0.0 0.0 0.00 0.00 0.00 88 1019.0
20260510063925 55 266 0.0 0.0 0.00 0.00 0.00 88 1018.9
20260510063524 55 266 0.0 0.0 0.00 0.00 0.00 88 1018.9
20260510063426 55 266 0.0 0.0 0.00 0.00 0.00 88 1018.9
20260510063029 55 266 0.0 0.0 0.00 0.00 0.00 88 1018.8
20260510062930 55 266 0.0 0.0 0.00 0.00 0.00 88 1018.8
20260510062529 55 266 0.0 0.0 0.00 0.00 0.00 88 1018.9
20260510062432 55 266 0.0 0.0 0.00 0.00 0.00 88 1018.9
20260510062014 55 284 0.0 0.0 0.00 0.00 0.00 88 1018.8
20260510061916 55 143 0.0 0.0 0.00 0.00 0.00 88 1018.9
20260510061514 55 244 0.0 0.0 0.00 0.00 0.00 88 1018.9
20260510061420 55 187 0.0 0.0 0.00 0.00 0.00 88 1018.9
20260510061017 55 178 0.0 0.0 0.00 0.00 0.00 88 1018.9
20260510060921 55 242 0.0 0.0 0.00 0.00 0.00 88 1018.9
20260510060517 55 224 0.0 0.0 0.00 0.00 0.00 88 1019.0
20260510060417 55 177 0.0 0.0 0.00 0.00 0.00 88 1019.0
20260510060028 55 164 0.0 0.0 0.00 0.00 0.00 88 1019.0
20260510055927 55 164 0.0 0.0 0.00 0.00 0.00 88 1018.9
20260510055526 55 283 0.0 0.0 0.00 0.00 0.00 88 1018.9
20260510055428 55 262 0.0 0.0 0.00 0.00 0.00 88 1018.9
20260510055030 55 257 0.0 0.0 0.00 0.00 0.00 88 1018.9
20260510054931 55 227 0.0 0.0 0.00 0.00 0.00 88 1019.0
20260510054530 55 58 0.0 0.0 0.00 0.00 0.00 88 1019.0
20260510054413 55 134 0.0 0.0 0.00 0.00 0.00 88 1018.9
20260510054014 55 248 0.0 0.0 0.00 0.00 0.00 88 1018.9
20260510053917 55 321 0.0 0.0 0.00 0.00 0.00 88 1019.0
20260510053518 55 282 0.0 0.0 0.00 0.00 0.00 88 1019.0
20260510053420 55 282 0.0 0.0 0.00 0.00 0.00 88 1019.0
20260510053023 55 235 0.0 0.0 0.00 0.00 0.00 88 1018.9
20260510052924 55 252 0.0 0.0 0.00 0.00 0.00 88 1018.9
20260510052522 55 305 0.0 0.0 0.00 0.00 0.00 88 1018.9
20260510052423 55 305 0.0 0.0 0.00 0.00 0.00 88 1018.8
20260510052022 55 91 0.0 0.0 0.00 0.00 0.00 88 1018.9
20260510051926 55 91 0.0 0.0 0.00 0.00 0.00 88 1018.9
20260510051524 55 88 0.0 0.0 0.00 0.00 0.00 88 1019.0
20260510051426 55 85 0.0 0.0 0.00 0.00 0.00 88 1019.0
20260510051021 55 266 0.0 0.0 0.00 0.00 0.00 88 1018.9
20260510050929 55 109 0.0 0.0 0.00 0.00 0.00 88 1019.0
20260510050523 55 81 0.0 0.0 0.00 0.00 0.00 88 1018.9
20260510050429 55 67 0.0 0.0 0.00 0.00 0.00 88 1018.8
20260510050037 55 342 0.0 0.0 0.00 0.00 0.00 88 1018.8
20260510045914 55 96 0.0 0.0 0.00 0.00 0.00 88 1018.9
20260510045516 55 281 0.0 0.0 0.00 0.00 0.00 88 1018.8
20260510045416 55 281 0.0 0.0 0.00 0.00 0.00 88 1018.7
20260510045015 55 345 0.0 0.0 0.00 0.00 0.00 88 1018.7
20260510044917 55 345 0.0 0.0 0.00 0.00 0.00 88 1018.6
20260510044514 55 14 0.0 0.0 0.00 0.00 0.00 88 1018.5
20260510044417 55 266 0.0 0.0 0.00 0.00 0.00 88 1018.6
20260510044016 55 134 0.0 0.0 0.00 0.00 0.00 88 1018.6
20260510043936 55 214 0.0 0.0 0.00 0.00 0.00 88 1018.6
20260510043534 55 58 0.0 0.0 0.00 0.00 0.00 89 1018.6
20260510043416 55 58 0.0 0.0 0.00 0.00 0.00 89 1018.6
20260510043016 55 267 0.0 0.0 0.00 0.00 0.00 89 1018.5
20260510042920 55 319 0.0 0.0 0.00 0.00 0.00 89 1018.5
20260510042516 55 268 0.0 0.0 0.00 0.00 0.00 88 1018.4
20260510042418 55 268 0.0 0.0 0.00 0.00 0.00 88 1018.4
20260510042019 55 244 0.0 0.0 0.00 0.00 0.00 88 1018.3
20260510041918 55 273 0.0 0.0 0.00 0.00 0.00 88 1018.4
20260510041516 55 96 0.0 0.0 0.00 0.00 0.00 88 1018.4
20260510041417 56 287 0.0 0.0 0.00 0.00 0.00 89 1018.4
20260510041014 56 335 0.0 0.0 0.00 0.00 0.00 89 1018.3
20260510040912 56 82 0.0 0.0 0.00 0.00 0.00 89 1018.3
20260510040533 56 155 0.0 0.0 0.00 0.00 0.00 89 1018.3
20260510040419 56 154 0.0 0.0 0.00 0.00 0.00 89 1018.3
20260510040027 56 154 0.0 0.0 0.00 0.00 0.00 88 1018.1
20260510035927 56 64 0.0 0.0 0.00 0.00 0.00 89 1018.2
20260510035526 56 229 0.0 0.0 0.00 0.00 0.00 89 1018.1
20260510035428 56 247 0.0 0.0 0.00 0.00 0.00 89 1018.1
20260510035028 56 294 0.0 0.0 0.00 0.00 0.00 89 1018.1
20260510034931 56 326 0.0 0.0 0.00 0.00 0.00 88 1018.0
20260510034531 56 338 0.0 0.0 0.00 0.00 0.00 88 1017.9
20260510034431 56 224 0.0 0.0 0.00 0.00 0.00 88 1017.9
20260510034033 56 295 0.0 0.0 0.00 0.00 0.00 88 1017.9
20260510033915 56 267 0.0 0.0 0.00 0.00 0.00 88 1017.7
20260510033519 56 39 0.0 0.0 0.00 0.00 0.00 88 1017.8
20260510033419 56 46 0.0 0.0 0.00 0.00 0.00 88 1017.8
20260510033020 56 264 0.0 0.0 0.00 0.00 0.00 88 1017.7
20260510032921 56 89 0.0 0.0 0.00 0.00 0.00 88 1017.7
20260510032519 56 188 0.0 0.0 0.00 0.00 0.00 88 1017.5
20260510032419 56 203 0.0 0.0 0.00 0.00 0.00 88 1017.5
20260510032020 56 265 0.0 0.0 0.00 0.00 0.00 88 1017.2
20260510031922 56 267 0.0 0.0 0.00 0.00 0.00 88 1017.2
20260510031522 56 266 0.0 0.0 0.00 0.00 0.00 88 1017.2
20260510031425 57 266 0.0 0.0 0.00 0.00 0.00 88 1017.2
20260510031027 57 284 0.0 0.0 0.00 0.00 0.00 88 1017.3
20260510030929 57 285 0.0 0.0 0.00 0.00 0.00 88 1017.2
20260510030526 57 309 0.0 0.0 0.00 0.00 0.00 88 1017.2
20260510030413 57 152 0.0 0.0 0.00 0.00 0.00 88 1017.2
20260510030023 57 268 0.0 0.0 0.00 0.00 0.00 88 1017.2
20260510025926 57 233 0.0 0.0 0.00 0.00 0.00 88 1017.2
20260510025523 57 135 0.0 0.0 0.00 0.00 0.00 88 1017.1
20260510025426 57 135 0.0 0.0 0.00 0.00 0.00 88 1017.1
20260510025027 57 136 0.0 0.0 0.00 0.00 0.00 88 1017.1
20260510024928 57 219 0.0 0.0 0.00 0.00 0.00 88 1017.2
20260510024530 57 340 0.0 0.0 0.00 0.00 0.00 88 1017.2
20260510024431 57 340 0.0 0.0 0.00 0.00 0.00 88 1017.2
20260510024032 57 115 0.0 0.0 0.00 0.00 0.00 87 1017.2
20260510023915 57 243 0.0 0.0 0.00 0.00 0.00 87 1017.2
20260510023517 57 131 0.0 0.0 0.00 0.00 0.00 87 1017.1
20260510023418 57 131 0.0 0.0 0.00 0.00 0.00 87 1017.1
20260510023015 57 99 0.0 0.0 0.00 0.00 0.00 87 1017.2
20260510022936 57 99 0.0 0.0 0.00 0.00 0.00 87 1017.2
20260510022531 57 95 0.0 0.0 0.00 0.00 0.00 87 1017.2
20260510022414 57 306 0.0 0.0 0.00 0.00 0.00 87 1017.3
20260510022015 58 282 0.0 0.0 0.00 0.00 0.00 87 1017.3
20260510021916 58 140 0.0 0.0 0.00 0.00 0.00 87 1017.3
20260510021516 58 269 0.0 0.0 0.00 0.00 0.00 87 1017.2
20260510021417 58 281 0.0 0.0 0.00 0.00 0.00 87 1017.2
20260510021017 58 297 0.0 0.0 0.00 0.00 0.00 86 1017.3
20260510020919 58 294 0.0 0.0 0.00 0.00 0.00 86 1017.3
20260510020521 58 96 0.0 0.0 0.00 0.00 0.00 86 1017.2
20260510020421 58 63 0.0 0.0 0.00 0.00 0.00 86 1017.3
20260510020015 58 259 0.0 0.0 0.00 0.00 0.00 85 1017.3
20260510015935 58 259 0.0 0.0 0.00 0.00 0.00 85 1017.3
20260510015532 58 257 0.0 0.0 0.00 0.00 0.00 85 1017.4
20260510015418 58 271 0.0 0.0 0.00 0.00 0.00 85 1017.3
20260510015033 59 114 0.0 0.0 0.00 0.00 0.00 85 1017.3
20260510014920 59 86 0.0 0.0 0.00 0.00 0.00 85 1017.4
20260510014519 59 175 0.0 0.0 0.00 0.00 0.00 85 1017.4
20260510014419 59 255 0.0 0.0 0.00 0.00 0.00 85 1017.4
20260510014016 59 270 0.0 0.0 0.00 0.00 0.00 85 1017.3
20260510013916 59 80 0.0 0.0 0.00 0.00 0.00 85 1017.3
20260510013514 59 358 0.0 0.0 0.00 0.00 0.00 84 1017.4
20260510013433 59 355 0.0 0.0 0.00 0.00 0.00 84 1017.4
20260510013033 59 284 0.0 0.0 0.00 0.00 0.00 84 1017.3
20260510012931 59 63 0.0 0.0 0.00 0.00 0.00 83 1017.5
20260510012529 60 315 0.0 0.0 0.00 0.00 0.00 83 1017.4
20260510012432 60 320 0.0 0.0 0.00 0.00 0.00 83 1017.4
20260510012033 60 251 0.0 0.0 0.00 0.00 0.00 83 1017.4
20260510011933 60 145 0.0 0.0 0.00 0.00 0.00 83 1017.5
20260510011533 60 13 0.0 0.0 0.00 0.00 0.00 82 1017.6
20260510011415 60 335 0.0 0.0 0.00 0.00 0.00 82 1017.6
20260510011014 61 307 0.0 0.0 0.00 0.00 0.00 82 1017.5
20260510010917 61 266 0.0 0.0 0.00 0.00 0.00 81 1017.6
20260510010518 61 216 0.0 0.0 0.00 0.00 0.00 82 1017.6
20260510010421 61 300 0.0 0.0 0.00 0.00 0.00 81 1017.6
20260510010025 61 293 0.0 0.0 0.00 0.00 0.00 80 1017.6
20260510005931 62 305 0.0 0.0 0.00 0.00 0.00 81 1017.5
20260510005528 62 114 0.0 0.0 0.00 0.00 0.00 81 1017.4
20260510005434 62 66 0.0 0.0 0.00 0.00 0.00 81 1017.5
20260510005028 62 245 0.0 0.0 0.00 0.00 0.00 80 1017.4
20260510004928 62 226 0.0 0.0 0.00 0.00 0.00 80 1017.4
20260510004526 62 2 0.0 0.0 0.00 0.00 0.00 79 1017.4
20260510004429 62 82 0.0 0.0 0.00 0.00 0.00 79 1017.4
20260510004028 63 278 0.0 0.0 0.00 0.00 0.00 79 1017.4
20260510003931 63 75 0.0 0.0 0.00 0.00 0.00 79 1017.3
20260510003531 63 262 0.0 0.0 0.00 0.00 0.00 80 1017.3
20260510003433 63 352 0.0 0.0 0.00 0.00 0.00 80 1017.3
20260510003034 63 293 0.0 0.0 0.00 0.00 0.00 79 1017.3
20260510002915 63 257 0.0 0.0 0.00 0.00 0.00 79 1017.3
20260510002516 63 70 0.0 0.0 0.00 0.00 0.00 80 1017.4
20260510002418 63 53 0.0 0.0 0.00 0.00 0.00 79 1017.3
20260510002019 63 290 0.0 0.0 0.00 0.00 0.00 79 1017.4
20260510001920 63 295 0.0 0.0 0.00 0.00 0.00 79 1017.4
20260510001519 63 38 0.0 0.0 0.00 0.00 0.00 79 1017.3
20260510001422 63 219 0.0 0.0 0.00 0.00 0.00 79 1017.3
20260510001020 63 75 0.0 0.0 0.00 0.00 0.00 79 1017.3
20260510000922 63 131 0.0 0.0 0.00 0.00 0.00 79 1017.3
20260510000526 63 345 0.0 0.0 0.00 0.00 0.00 79 1017.4
20260510000427 64 86 0.0 0.0 0.00 0.00 0.00 79 1017.3
20260510000019 63 25 0.0 0.0 0.00 0.00 0.00 79 1017.4
20260509235921 63 292 0.0 0.0 0.00 0.00 0.00 79 1017.4
20260509235523 63 270 0.0 0.0 0.00 0.00 0.00 79 1017.4
20260509235425 63 48 0.0 0.0 0.00 0.00 0.00 78 1017.4
20260509235022 63 90 0.0 0.0 0.00 0.00 0.00 79 1017.4
20260509234928 63 268 0.0 0.0 0.00 0.00 0.00 79 1017.3
20260509234527 63 161 0.0 0.0 0.00 0.00 0.00 79 1017.3
20260509234430 63 200 0.0 0.0 0.00 0.00 0.00 80 1017.3
20260509234024 63 82 0.0 0.0 0.00 0.00 0.00 80 1017.4
20260509233927 63 227 0.0 0.0 0.00 0.00 0.00 80 1017.4
20260509233526 63 318 0.0 0.0 0.00 0.00 0.00 79 1017.5
20260509233427 63 283 0.0 0.0 0.00 0.00 0.00 79 1017.5
20260509233029 63 196 0.0 0.0 0.00 0.00 0.00 79 1017.4
20260509232928 63 249 0.0 0.0 0.00 0.00 0.00 79 1017.5
20260509232524 63 303 0.0 0.0 0.00 0.00 0.00 79 1017.5
20260509232427 63 77 0.0 0.0 0.00 0.00 0.00 79 1017.6
20260509232025 63 281 0.0 0.0 0.00 0.00 0.00 78 1017.6
20260509231927 64 297 0.0 0.0 0.00 0.00 0.00 77 1017.6
20260509231527 64 325 0.0 0.0 0.00 0.00 0.00 78 1017.6
20260509231429 64 254 0.0 0.0 0.00 0.00 0.00 77 1017.6
20260509231028 65 300 0.0 0.0 0.00 0.00 0.00 78 1017.6
20260509230930 65 304 0.0 0.0 0.00 0.00 0.00 77 1017.5
20260509230530 65 305 0.0 0.0 0.00 0.00 0.00 76 1017.6
20260509230430 65 285 0.0 0.0 0.00 0.00 0.00 77 1017.7
20260509230017 65 271 0.0 0.0 0.00 0.00 0.00 78 1017.6
20260509225917 65 296 0.0 0.0 0.00 0.00 0.00 77 1017.7
20260509225515 65 319 0.0 0.0 0.00 0.00 0.00 76 1017.8
20260509225417 65 290 0.0 0.0 0.00 0.00 0.00 76 1017.7
20260509225017 65 342 0.0 0.0 0.00 0.00 0.00 77 1017.7
20260509224919 65 268 0.0 0.0 0.00 0.00 0.00 77 1017.7
20260509224513 65 297 0.0 0.0 0.00 0.00 0.00 75 1017.8
20260509224419 65 13 0.0 0.0 0.00 0.00 0.00 75 1017.8
20260509224016 65 275 0.0 0.0 0.00 0.00 0.00 74 1017.8
20260509223921 65 266 0.0 0.0 0.00 0.00 0.00 74 1017.8
20260509223518 65 270 0.0 0.0 0.00 0.00 0.00 75 1017.6
20260509223420 65 300 0.0 0.0 0.00 0.00 0.00 74 1017.6
20260509223021 66 258 0.0 0.0 0.00 0.00 0.00 73 1017.7
20260509222920 66 268 0.0 0.0 0.00 0.00 0.00 73 1017.8
20260509222519 66 48 0.0 0.0 0.00 0.00 0.00 73 1017.7
20260509222420 66 245 0.0 0.0 0.00 0.00 0.00 73 1017.7
20260509222020 67 343 0.0 0.0 0.00 0.00 0.00 72 1017.7
20260509221921 67 321 0.0 0.0 0.00 0.00 0.00 73 1017.7
20260509221519 67 305 0.0 0.0 0.00 0.00 0.00 74 1017.6
20260509221417 67 102 0.0 0.0 0.00 0.00 0.00 73 1017.7
20260509221014 66 242 0.0 0.0 0.00 0.00 0.00 74 1017.6
20260509220914 66 357 0.0 0.0 0.00 0.00 0.00 73 1017.7
20260509220514 66 137 0.0 0.0 0.00 0.00 0.00 76 1017.7
20260509220417 66 138 0.0 0.0 0.00 0.00 0.00 74 1017.8
20260509220024 65 255 0.0 0.0 0.00 0.00 0.00 76 1017.9
20260509215922 65 246 0.0 0.0 0.00 0.00 0.00 76 1017.9
20260509215521 65 241 0.0 0.0 0.00 0.00 0.00 76 1018.0
20260509215422 65 278 0.0 0.0 0.00 0.00 0.00 77 1018.1
20260509215015 64 299 0.0 0.0 0.00 0.00 0.00 78 1018.3
20260509214921 64 338 0.0 0.0 0.00 0.00 0.00 77 1018.3
20260509214520 64 353 0.0 0.0 0.00 0.00 0.00 78 1018.4
20260509214427 64 97 0.0 0.0 0.00 0.00 0.00 77 1018.5
20260509214020 64 268 0.0 0.0 0.00 0.00 0.00 78 1018.4
20260509213921 64 231 0.0 0.0 0.00 0.00 0.00 78 1018.4
20260509213521 64 292 0.0 0.0 0.00 0.00 0.00 78 1018.5
20260509213419 64 295 0.0 0.0 0.00 0.00 0.00 77 1018.6
20260509213018 64 319 0.0 0.0 0.00 0.00 0.00 78 1018.5
20260509212917 64 148 0.0 0.0 0.00 0.00 0.00 77 1018.5
20260509212516 64 303 0.0 0.0 0.00 0.00 0.00 78 1018.5
20260509212417 64 89 0.0 0.0 0.00 0.00 0.00 79 1018.5
20260509212016 64 69 0.0 0.0 0.00 0.00 0.00 78 1018.6
20260509211919 64 128 0.0 0.0 0.00 0.00 0.00 78 1018.6
20260509211518 64 279 0.0 0.0 0.00 0.00 0.00 79 1018.6
20260509211418 64 129 0.0 0.0 0.00 0.00 0.00 78 1018.7
20260509211019 64 106 0.0 0.0 0.00 0.00 0.00 77 1018.7
20260509210921 64 73 0.0 0.0 0.00 0.00 0.00 77 1018.7
20260509210521 65 264 0.0 0.0 0.00 0.00 0.00 78 1018.8
20260509210422 64 330 0.0 0.0 0.00 0.00 0.00 78 1018.8
20260509210032 64 256 0.0 0.0 0.00 0.00 0.00 78 1018.8
20260509205932 64 195 0.0 0.0 0.00 0.00 0.00 79 1018.8
20260509205530 63 265 0.0 0.0 0.00 0.00 0.00 79 1018.8
20260509205430 63 320 0.0 0.0 0.00 0.00 0.00 78 1018.7
20260509205027 63 161 0.0 0.0 0.00 0.00 0.00 80 1018.7
20260509204930 63 285 0.0 0.0 0.00 0.00 0.00 80 1018.8
20260509204524 63 153 0.0 0.0 0.00 0.00 0.00 79 1018.9
20260509204430 63 318 0.0 0.0 0.00 0.00 0.00 79 1018.8
20260509204026 63 53 0.0 0.0 0.00 0.00 0.00 78 1018.9
20260509203928 63 119 0.0 0.0 0.00 0.00 0.00 78 1018.9
20260509203528 64 274 0.0 0.0 0.00 0.00 0.00 78 1018.9
20260509203430 64 318 0.0 0.0 0.00 0.00 0.00 78 1018.9
20260509203033 64 8 0.0 0.0 0.00 0.00 0.00 78 1018.9
20260509202931 64 314 0.0 0.0 0.00 0.00 0.00 79 1018.9
20260509202529 63 145 0.0 0.0 0.00 0.00 0.00 80 1019.0
20260509202430 63 145 0.0 0.0 0.00 0.00 0.00 80 1019.0
20260509202030 62 126 0.0 0.0 0.00 0.00 0.00 80 1019.0
20260509201932 62 298 0.0 0.0 0.00 0.00 0.00 80 1019.0
20260509201531 61 234 0.0 0.0 0.00 0.00 0.00 80 1018.9
20260509201413 61 171 0.0 0.0 0.00 0.00 0.00 79 1018.9
20260509201016 62 238 0.0 0.0 0.00 0.00 0.00 78 1018.9
20260509200918 62 259 0.0 0.0 0.00 0.00 0.00 78 1019.0
20260509200520 63 282 0.0 0.0 0.00 0.00 0.00 78 1019.0
20260509200421 63 55 0.0 0.0 0.00 0.00 0.00 78 1019.0
20260509200033 63 58 0.0 0.0 0.00 0.00 0.00 78 1019.1
20260509195934 63 151 0.0 0.0 0.00 0.00 0.00 77 1019.0
20260509195533 63 163 0.0 0.0 0.00 0.00 0.00 78 1019.1
20260509195416 63 352 0.0 0.0 0.00 0.00 0.00 79 1019.0
20260509195018 63 50 0.0 0.0 0.00 0.00 0.00 78 1019.0
20260509194920 63 110 0.0 0.0 0.00 0.00 0.00 79 1019.0
20260509194520 62 263 0.0 0.0 0.00 0.00 0.00 79 1019.1
20260509194422 62 283 0.0 0.0 0.00 0.00 0.00 79 1019.1
20260509194017 62 328 0.0 0.0 0.00 0.00 0.00 78 1019.1
20260509193922 62 32 0.0 0.0 0.00 0.00 0.00 78 1019.1
20260509193517 62 264 0.0 0.0 0.00 0.00 0.00 77 1019.1
20260509193420 62 46 0.0 0.0 0.00 0.00 0.00 77 1019.1
20260509193015 63 91 0.0 0.0 0.00 0.00 0.00 77 1019.1
20260509192936 63 260 0.0 0.0 0.00 0.00 0.00 76 1019.1
20260509192533 64 278 0.0 0.0 0.00 0.00 0.00 75 1019.1
20260509192430 64 285 0.0 0.0 0.00 0.00 0.00 74 1019.0
20260509192026 65 281 0.0 0.0 0.00 0.00 0.00 73 1019.1
20260509191926 65 264 0.0 0.0 0.00 0.00 0.00 74 1019.2
20260509191524 66 285 0.0 0.0 0.00 0.00 0.00 74 1019.3
20260509191426 66 65 0.0 0.0 0.00 0.00 0.00 76 1019.4
20260509191022 65 294 0.0 0.0 0.00 0.00 0.00 75 1019.4
20260509190922 65 245 0.0 0.0 0.00 0.00 0.00 75 1019.4
20260509190522 65 149 0.0 0.0 0.00 0.00 0.00 75 1019.4
20260509190426 65 298 0.0 0.0 0.00 0.00 0.00 75 1019.4
20260509190037 64 51 0.0 0.0 0.00 0.00 0.00 77 1019.6
20260509185932 64 317 0.0 0.0 0.00 0.00 0.00 75 1019.6
20260509185532 64 59 0.0 0.0 0.00 0.00 0.00 76 1019.6
20260509185432 64 205 0.0 0.0 0.00 0.00 0.00 77 1019.7
20260509185024 64 311 0.0 0.0 0.00 0.00 0.00 76 1019.7
20260509184930 64 49 0.0 0.0 0.00 0.00 0.00 76 1019.6
20260509184526 64 175 0.0 0.0 0.00 0.00 0.00 76 1019.6
20260509184432 64 273 0.0 0.0 0.00 0.00 0.00 76 1019.6
20260509184028 63 355 0.0 0.0 0.00 0.00 0.00 77 1019.7
20260509183928 63 279 0.0 0.0 0.00 0.00 0.00 78 1019.7
20260509183528 63 258 0.0 0.0 0.00 0.00 0.00 77 1019.6
20260509183428 63 311 0.0 0.0 0.00 0.00 0.00 77 1019.7
20260509183027 62 44 0.0 0.0 0.00 0.00 0.00 78 1019.6
20260509182926 62 281 0.0 0.0 0.00 0.00 0.00 78 1019.7
20260509182523 62 98 0.0 0.0 0.00 0.00 0.00 78 1019.6
20260509182422 62 105 0.0 0.0 0.00 0.00 0.00 78 1019.6
20260509182020 62 264 0.0 0.0 0.00 0.00 0.00 77 1019.7
20260509181920 62 295 0.0 0.0 0.00 0.00 0.00 77 1019.7
20260509181516 62 140 0.0 0.0 0.00 0.00 0.00 78 1019.8
20260509181435 62 282 0.0 0.0 0.00 0.00 0.00 78 1019.8
20260509181032 62 269 0.0 0.0 0.00 0.00 0.00 76 1019.7
20260509180914 63 10 0.0 0.0 0.00 0.00 0.00 76 1019.7
20260509180514 63 104 0.0 0.0 0.00 0.00 0.00 76 1019.6
20260509180412 63 279 0.0 0.0 0.00 0.00 0.00 76 1019.7
20260509180022 63 322 0.0 0.0 0.00 0.00 0.00 74 1019.6
20260509175921 64 307 0.0 0.0 0.00 0.00 0.00 74 1019.6
20260509175520 64 291 0.0 0.0 0.00 0.00 0.00 76 1019.5
20260509175420 64 359 0.0 0.0 0.00 0.00 0.00 75 1019.4
20260509175014 63 134 0.0 0.0 0.00 0.00 0.00 77 1019.5
20260509174920 63 124 0.0 0.0 0.00 0.00 0.00 77 1019.5
20260509174516 62 258 0.0 0.0 0.00 0.00 0.00 77 1019.5
20260509174423 62 200 0.0 0.0 0.00 0.00 0.00 76 1019.5
20260509174019 62 290 0.0 0.0 0.00 0.00 0.00 75 1019.6
20260509173919 63 280 0.0 0.0 0.00 0.00 0.00 75 1019.6
20260509173513 63 246 0.0 0.0 0.00 0.00 0.00 77 1019.7
20260509173433 63 260 0.0 0.0 0.00 0.00 0.00 77 1019.7
20260509173033 62 300 0.0 0.0 0.00 0.00 0.00 77 1019.7
20260509172931 62 62 0.0 0.0 0.00 0.00 0.00 78 1019.8
20260509172528 62 75 0.0 0.0 0.00 0.00 0.00 78 1019.8
20260509172428 62 53 0.0 0.0 0.00 0.00 0.00 78 1019.8
20260509172026 62 67 0.0 0.0 0.00 0.00 0.00 78 1019.7
20260509171926 62 69 0.0 0.0 0.00 0.00 0.00 78 1019.6
20260509171525 61 202 0.0 0.0 0.00 0.00 0.00 78 1019.6
20260509171426 61 253 0.0 0.0 0.00 0.00 0.00 78 1019.7
20260509171028 62 269 0.0 0.0 0.00 0.00 0.00 78 1019.6
20260509170927 62 290 0.0 0.0 0.00 0.00 0.00 79 1019.5
20260509170525 61 295 0.0 0.0 0.00 0.00 0.00 80 1019.5
20260509170424 61 281 0.0 0.0 0.00 0.00 0.00 81 1019.5
20260509170013 60 348 0.0 0.0 0.00 0.00 0.00 81 1019.7
20260509165933 60 354 0.0 0.0 0.00 0.00 0.00 81 1019.7
20260509165527 60 310 0.0 0.0 0.00 0.00 0.00 82 1019.8
20260509165432 60 261 0.0 0.0 0.00 0.00 0.00 83 1019.7
20260509165029 59 289 0.0 0.0 0.00 0.00 0.00 85 1019.8
20260509164914 59 240 0.0 0.0 0.00 0.00 0.00 85 1019.7
20260509164527 58 20 0.0 0.0 0.00 0.00 0.00 86 1019.7
20260509164429 58 164 0.0 0.0 0.00 0.00 0.00 86 1019.7
20260509164027 57 237 0.0 0.0 0.00 0.00 0.00 86 1019.6
20260509163927 57 276 0.0 0.0 0.00 0.00 0.00 87 1019.6
20260509163525 57 74 0.0 0.0 0.00 0.00 0.00 90 1019.7
20260509163427 57 74 0.0 0.0 0.00 0.00 0.00 90 1019.7
20260509163030 56 253 0.0 0.0 0.00 0.00 0.00 92 1019.7
20260509162931 56 253 0.0 0.0 0.00 0.00 0.00 92 1019.8
20260509162531 56 290 0.0 0.0 0.00 0.00 0.00 93 1019.8
20260509162431 56 290 0.0 0.0 0.00 0.00 0.00 93 1019.8
20260509162027 55 298 0.0 0.0 0.00 0.00 0.00 94 1019.8
20260509161928 55 298 0.0 0.0 0.00 0.00 0.00 94 1019.7
20260509161528 55 245 0.0 0.0 0.00 0.00 0.00 94 1019.7
20260509161431 55 245 0.0 0.0 0.00 0.00 0.00 94 1019.7
20260509161030 54 285 0.0 0.0 0.00 0.00 0.00 94 1019.7
20260509160931 54 285 0.0 0.0 0.00 0.00 0.00 94 1019.7
20260509160533 53 294 0.0 0.0 0.00 0.00 0.00 94 1019.6
20260509160415 53 294 0.0 0.0 0.00 0.00 0.00 94 1019.6
20260509160024 53 294 0.0 0.0 0.00 0.00 0.00 94 1019.7
20260509155921 53 294 0.0 0.0 0.00 0.00 0.00 94 1019.7
20260509155516 53 294 0.0 0.0 0.00 0.00 0.00 94 1019.6
20260509155423 53 294 0.0 0.0 0.00 0.00 0.00 94 1019.6
20260509155015 52 294 0.0 0.0 0.00 0.00 0.00 94 1019.7
20260509154918 52 294 0.0 0.0 0.00 0.00 0.00 94 1019.7
20260509154516 52 63 0.0 0.0 0.00 0.00 0.00 94 1019.8
20260509154418 52 63 0.0 0.0 0.00 0.00 0.00 94 1019.8
20260509154018 51 62 0.0 0.0 0.00 0.00 0.00 94 1019.8
20260509153920 51 63 0.0 0.0 0.00 0.00 0.00 94 1019.8
20260509153520 51 63 0.0 0.0 0.00 0.00 0.00 93 1019.8
20260509153422 51 62 0.0 0.0 0.00 0.00 0.00 93 1019.9
20260509153021 50 62 0.0 0.0 0.00 0.00 0.00 93 1019.9
20260509152920 50 63 0.0 0.0 0.00 0.00 0.00 93 1019.9
20260509152521 50 63 0.0 0.0 0.00 0.00 0.00 93 1020.0
20260509152423 50 63 0.0 0.0 0.00 0.00 0.00 93 1020.0
20260509152025 50 63 0.0 0.0 0.00 0.00 0.00 93 1020.1
20260509151927 50 80 0.0 0.0 0.00 0.00 0.00 93 1020.1
20260509151527 50 80 0.0 0.0 0.00 0.00 0.00 93 1020.2
20260509151429 50 80 0.0 0.0 0.00 0.00 0.00 93 1020.2
20260509151027 49 80 0.0 0.0 0.00 0.00 0.00 93 1020.1
20260509150929 49 80 0.0 0.0 0.00 0.00 0.00 93 1020.1
20260509150529 49 80 0.0 0.0 0.00 0.00 0.00 93 1020.1
20260509150428 49 80 0.0 0.0 0.00 0.00 0.00 93 1020.0
20260509150019 49 80 0.0 0.0 0.00 0.00 0.00 93 1020.1
20260509145921 49 80 0.0 0.0 0.00 0.00 0.00 93 1020.1
20260509145516 49 80 0.0 0.0 0.00 0.00 0.00 93 1020.1
20260509145418 48 80 0.0 0.0 0.00 0.00 0.00 93 1020.1
20260509145016 48 80 0.0 0.0 0.00 0.00 0.00 93 1020.0
20260509144925 48 80 0.0 0.0 0.00 0.00 0.00 93 1020.0
20260509144520 48 80 0.0 0.0 0.00 0.00 0.00 93 1019.8
20260509144427 48 80 0.0 0.0 0.00 0.00 0.00 93 1019.9
20260509144020 47 80 0.0 0.0 0.00 0.00 0.00 93 1019.9
20260509143918 47 80 0.0 0.0 0.00 0.00 0.00 93 1020.0
20260509143518 47 80 0.0 0.0 0.00 0.00 0.00 93 1020.2
20260509143417 47 80 0.0 0.0 0.00 0.00 0.00 93 1020.3
20260509143014 47 80 0.0 0.0 0.00 0.00 0.00 93 1020.2
20260509142934 47 80 0.0 0.0 0.00 0.00 0.00 93 1020.2
20260509142532 47 80 0.0 0.0 0.00 0.00 0.00 93 1020.2
20260509142432 47 80 0.0 0.0 0.00 0.00 0.00 93 1020.3
20260509142032 46 80 0.0 0.0 0.00 0.00 0.00 93 1020.1
20260509141933 46 80 0.0 0.0 0.00 0.00 0.00 93 1020.1
20260509141530 46 80 0.0 0.0 0.00 0.00 0.00 93 1019.9
20260509141430 46 80 0.0 0.0 0.00 0.00 0.00 93 1019.9
20260509141026 46 80 0.0 0.0 0.00 0.00 0.00 93 1019.9
20260509140928 46 80 0.0 0.0 0.00 0.00 0.00 93 1020.0
20260509140528 45 80 0.0 0.0 0.00 0.00 0.00 93 1020.1
20260509140431 45 80 0.0 0.0 0.00 0.00 0.00 93 1020.1
20260509140025 45 80 0.0 0.0 0.00 0.00 0.00 93 1020.1
20260509135924 45 80 0.0 0.0 0.00 0.00 0.00 93 1020.1
20260509135524 45 80 0.0 0.0 0.00 0.00 0.00 93 1020.1
20260509135424 45 80 0.0 0.0 0.00 0.00 0.00 93 1020.1
20260509135017 45 80 0.0 0.0 0.00 0.00 0.00 93 1020.1
20260509134918 45 80 0.0 0.0 0.00 0.00 0.00 93 1020.1
20260509134514 45 80 0.0 0.0 0.00 0.00 0.00 93 1020.2